Weather History for KACY - August, 2013

Change the Weather History Date:

Saturday, August 31, 2013

  Actual Average Record
Temperature  
Mean Temperature 78 °F 72 °F  
Max Temperature 88 °F 82 °F 99 °F (2010)
Min Temperature 68 °F 63 °F 40 °F (1976)
Degree Days  
Heating Degree Days 0 0  
Month to date heating degree days 0 0  
Since 1 June heating degree days 8 30  
Since 1 July heating degree days 0 3  
Cooling Degree Days 13 7  
Month to date cooling degree days 222 295  
Year to date cooling degree days 956 909  
Since 1 June cooling degree days 862 845  
Growing Degree Days 28 (Base 50)    
Moisture  
Dew Point 70 °F    
Average Humidity 78    
Maximum Humidity 100    
Minimum Humidity 55    
Precipitation  
Precipitation 0.00 in 0.10 in 2.48 in (1954)
Month to date precipitation 2.93 4.11  
Year to date precipitation 31.42 28.22  
Snow  
Snow 0.00 in 0.00 in 0.00 in (1903)
Month to date snowfall 0.0 0.0  
Since 1 June snowfall 0.0 0.0  
Since 1 July snowfall 0.0 0.0  
Snow Depth 0.00 in    
Sea Level Pressure  
Sea Level Pressure 29.89 in    
Wind  
Wind Speed 11 mph (SSW)    
Max Wind Speed 20 mph    
Max Gust Speed 31 mph    
Visibility 10 miles    
Events      
T = Trace of Precipitation, MM = Missing Value Source: NWS Daily Summary

Daily Weather History Graph

Daily Weather History Graph

Search for Another Location

Airport or City:

Trip Planner

Search our weather history database for the weather conditions in past years. The results will help you decide how hot, cold, wet, or windy it might be!

Date:

Astronomy

Aug. 31, 2013 Rise Set
Actual Time 6:25 AM EDT 7:30 PM EDT
Civil Twilight 5:58 AM EDT 7:57 PM EDT
Nautical Twilight 5:25 AM EDT 8:30 PM EDT
Astronomical Twilight 4:51 AM EDT 9:04 PM EDT
Moon 1:53 AM EDT (8/31) 4:26 PM EDT (8/31)
Length of Visible Light 13h 59m
Length of Day
13h 04m
Waning Crescent, 21% of the Moon is Illuminated
Aug 31
Waning Crescent
Sep 5
New
Sep 12
First Quarter
Sep 19
Full
Sep 26
Last Quarter

Hourly Weather History & Observations

Time (EDT) Temp. Heat Index Dew Point Humidity Pressure Visibility Wind Dir Wind Speed Gust Speed Precip Events Conditions
12:54 AM 70.0 °F - 69.1 °F 97% 29.93 in 8.0 mi SSW 9.2 mph - N/A   Clear
1:54 AM 70.0 °F - 68.0 °F 93% 29.92 in 10.0 mi SSW 9.2 mph - N/A   Clear
2:54 AM 70.0 °F - 66.9 °F 90% 29.91 in 10.0 mi SW 6.9 mph - N/A   Clear
3:54 AM 69.1 °F - 66.9 °F 93% 29.91 in 10.0 mi SSW 6.9 mph - N/A   Clear
4:54 AM 68.0 °F - 66.0 °F 93% 29.90 in 10.0 mi South 5.8 mph - N/A   Clear
5:54 AM 68.0 °F - 66.9 °F 96% 29.91 in 10.0 mi South 6.9 mph - N/A   Clear
6:54 AM 69.1 °F - 68.0 °F 96% 29.92 in 8.0 mi South 5.8 mph - N/A   Clear
7:54 AM 72.0 °F - 69.1 °F 91% 29.91 in 9.0 mi South 8.1 mph - N/A   Clear
8:13 AM 73.0 °F - 70.0 °F 90% 29.91 in 10.0 mi South 8.1 mph - N/A   Partly Cloudy
8:54 AM 75.9 °F - 71.1 °F 85% 29.91 in 10.0 mi SSW 13.8 mph 31.1 mph N/A   Clear
9:54 AM 80.1 °F 83.2 °F 70.0 °F 71% 29.91 in 10.0 mi SSW 11.5 mph - N/A   Clear
10:54 AM 82.9 °F 87.0 °F 70.0 °F 65% 29.90 in 10.0 mi SSW 12.7 mph - N/A   Clear
11:54 AM 84.9 °F 88.8 °F 69.1 °F 59% 29.89 in 10.0 mi SSW 12.7 mph - N/A   Clear
12:54 PM 86.0 °F 90.1 °F 69.1 °F 57% 29.88 in 10.0 mi SW 12.7 mph - N/A   Clear
1:54 PM 87.1 °F 91.3 °F 69.1 °F 55% 29.88 in 10.0 mi SSW 16.1 mph - N/A   Clear
2:54 PM 84.9 °F 90.1 °F 71.1 °F 63% 29.87 in 10.0 mi South 17.3 mph 23.0 mph N/A   Partly Cloudy
3:54 PM 84.9 °F 89.4 °F 70.0 °F 61% 29.86 in 10.0 mi South 19.6 mph 26.5 mph N/A   Clear
4:54 PM 82.9 °F 87.5 °F 71.1 °F 67% 29.84 in 10.0 mi South 13.8 mph - N/A   Clear
5:54 PM 81.0 °F 84.9 °F 71.1 °F 72% 29.84 in 10.0 mi South 11.5 mph 19.6 mph N/A   Clear
6:54 PM 78.1 °F - 71.1 °F 79% 29.85 in 10.0 mi South 10.4 mph - N/A   Clear
7:54 PM 77.0 °F - 72.0 °F 84% 29.86 in 10.0 mi SSW 11.5 mph - N/A   Clear
8:54 PM 75.9 °F - 72.0 °F 87% 29.88 in 10.0 mi SSW 9.2 mph - N/A   Clear
9:54 PM 75.9 °F - 72.0 °F 87% 29.89 in 10.0 mi SSW 8.1 mph - N/A   Clear
10:54 PM 75.9 °F - 71.1 °F 85% 29.89 in 10.0 mi SSW 10.4 mph - N/A   Clear
11:54 PM 75.0 °F - 71.1 °F 87% 29.88 in 10.0 mi South 6.9 mph - N/A   Clear